Retour au catalogue

STARLINK-36434

ActifCommunicationsVLEO
NORAD 67322·PAYLOAD·🇺🇸 United States

Lancé Jan 4, 2026 depuis Cape Canaveral Space Force Station

Loading…

Prochains Passages (prochaines 24 heures)

TLE

FraisSource: CelesTrak SupGP

Époque: Sep 15, 2026, 03:00 UTC

1 67322C 26002T   26258.12548611  .00040975  00000+0  14838-2 0  2589
2 67322  43.0008 335.7397 0001403 263.9871 222.1114 15.27565983    13

Suivez STARLINK-36434 en temps réel avec AllMySat

Download on the App Store